Russellville, AR

12:15 AM CDT on September 22, 2017 (GMT -0500)
Russellville Regional

Weather History for KRUE - September, 2013

Change the Weather History Date:

Sunday, September 8, 2013

  Actual Average (KHOT) Record (KHOT)
Temperature  
Mean Temperature 84 °F -  
Max Temperature 102 °F 90 °F 102 °F (1990)
Min Temperature 69 °F 65 °F 50 °F (1988)
Cooling Degree Days 20    
Growing Degree Days 34 (Base 50)    
Moisture  
Dew Point 65 °F    
Average Humidity 57    
Maximum Humidity 90    
Minimum Humidity 28    
Precipitation  
Precipitation 0.00 in - - ()
Sea Level Pressure  
Sea Level Pressure 29.92 in    
Wind  
Wind Speed 1 mph (West)    
Max Wind Speed 6 mph    
Max Gust Speed -    
Visibility 10 miles    
Events      
Averages and records for this station are not official NWS values.
T = Trace of Precipitation, MM = Missing Value Source: NWS Daily Summary

Daily Weather History Graph

Daily Weather History Graph

Search for Another Location

Airport or City:

Trip Planner

Search our weather history database for the weather conditions in past years. The results will help you decide how hot, cold, wet, or windy it might be!

Date:

Astronomy

Sep. 08, 2013 Rise Set
Actual Time 6:50 AM CDT 7:29 PM CDT
Civil Twilight 6:24 AM CDT 7:54 PM CDT
Nautical Twilight 5:54 AM CDT 8:24 PM CDT
Astronomical Twilight 5:23 AM CDT 8:55 PM CDT
Moon 9:59 AM CDT (9/8) 9:14 PM CDT (9/8)
Length of Visible Light 13h 30m
Length of Day
12h 38m
Waxing Crescent, 11% of the Moon is Illuminated
Sep 8
Waxing Crescent
Sep 12
First Quarter
Sep 19
Full
Sep 26
Last Quarter
Oct 4
New

Hourly Weather History & Observations

Time (CDT) Temp. Heat Index Dew Point Humidity Pressure Visibility Wind Dir Wind Speed Gust Speed Precip Events Conditions
12:53 AM 73.9 °F - 64.9 °F 73% 29.95 in 10.0 mi Calm Calm - N/A   Clear
1:53 AM 73.0 °F - 64.9 °F 76% 29.94 in 10.0 mi Calm Calm - N/A   Clear
2:53 AM 73.0 °F - 64.9 °F 76% 29.93 in 10.0 mi Calm Calm - N/A   Clear
3:53 AM 71.1 °F - 66.0 °F 84% 29.93 in 10.0 mi Calm Calm - N/A   Clear
4:53 AM 70.0 °F - 66.0 °F 87% 29.93 in 9.0 mi Calm Calm - N/A   Clear
5:53 AM 69.1 °F - 64.9 °F 87% 29.94 in 9.0 mi Calm Calm - N/A   Clear
6:53 AM 69.1 °F - 66.0 °F 90% 29.96 in 8.0 mi Calm Calm - N/A   Clear
7:53 AM 71.1 °F - 66.9 °F 87% 29.96 in 8.0 mi Calm Calm - N/A   Clear
8:53 AM 79.0 °F - 66.9 °F 66% 29.96 in 10.0 mi Calm Calm - N/A   Clear
9:53 AM 84.0 °F 86.5 °F 66.9 °F 56% 29.97 in 10.0 mi Calm Calm - N/A   Clear
10:53 AM 90.0 °F 92.8 °F 66.9 °F 46% 29.97 in 10.0 mi West 4.6 mph - N/A   Clear
11:53 AM 95.0 °F 97.4 °F 64.9 °F 37% 29.97 in 10.0 mi WNW 4.6 mph - N/A   Clear
12:53 PM 97.0 °F 99.3 °F 64.0 °F 34% 29.95 in 10.0 mi Variable 5.8 mph - N/A   Clear
1:53 PM 99.0 °F 99.5 °F 61.0 °F 28% 29.93 in 10.0 mi Calm Calm - N/A   Clear
2:53 PM 96.1 °F 96.0 °F 60.1 °F 30% 29.90 in 10.0 mi SSW 4.6 mph - N/A   Clear
3:53 PM 100.0 °F 101.2 °F 61.0 °F 28% 29.88 in 10.0 mi NNW 4.6 mph - N/A   Scattered Clouds
4:53 PM 99.0 °F 99.5 °F 60.1 °F 28% 29.87 in 10.0 mi Variable 4.6 mph - N/A   Scattered Clouds
5:53 PM 98.1 °F 98.1 °F 60.1 °F 28% 29.86 in 10.0 mi SSW 3.5 mph - N/A   Clear
6:53 PM 96.1 °F 96.9 °F 62.1 °F 32% 29.86 in 10.0 mi Calm Calm - N/A   Clear
7:53 PM 88.0 °F 89.6 °F 64.9 °F 46% 29.87 in 10.0 mi Calm Calm - N/A   Clear
8:53 PM 84.0 °F 86.3 °F 66.0 °F 55% 29.88 in 10.0 mi Calm Calm - N/A   Partly Cloudy
9:53 PM 81.0 °F 83.0 °F 66.0 °F 60% 29.90 in 10.0 mi Calm Calm - N/A   Partly Cloudy
10:53 PM 79.0 °F - 66.9 °F 66% 29.92 in 10.0 mi Calm Calm - N/A   Clear
11:53 PM 78.1 °F - 66.0 °F 66% 29.91 in 10.0 mi Calm Calm - N/A   Clear